Las Vegas, NV

1:02 PM PDT on April 24, 2017 (GMT -0700)
McCarran International

Weather History for KLAS - August, 2014

Change the Weather History Date:

Monday, August 18, 2014

  Actual Average Record
Temperature  
Mean Temperature 91 °F 91 °F  
Max Temperature 99 °F 102 °F 111 °F (1992)
Min Temperature 83 °F 79 °F 60 °F (1944)
Degree Days  
Heating Degree Days 0 0  
Month to date heating degree days 0 0  
Since 1 June heating degree days 0 1  
Since 1 July heating degree days 0 0  
Cooling Degree Days 26 26  
Month to date cooling degree days 435 479  
Year to date cooling degree days 2732 2533  
Since 1 June cooling degree days 2074 1983  
Growing Degree Days 40 (Base 50)    
Moisture  
Dew Point 47 °F    
Average Humidity 26    
Maximum Humidity 37    
Minimum Humidity 14    
Precipitation  
Precipitation 0.00 in 0.01 in 0.49 in (1952)
Month to date precipitation 0.35 0.20  
Year to date precipitation 0.87 2.68  
Snow  
Snow 0.00 in 0.00 in 0.00 in ()
Month to date snowfall 0.0 0.0  
Since 1 June snowfall 0.0 0.0  
Since 1 July snowfall 0.0 0.0  
Snow Depth 0.00 in    
Sea Level Pressure  
Sea Level Pressure 29.71 in    
Wind  
Wind Speed 14 mph (South)    
Max Wind Speed 26 mph    
Max Gust Speed 34 mph    
Visibility 10 miles    
Events      
T = Trace of Precipitation, MM = Missing Value Source: NWS Daily Summary

Daily Weather History Graph

Daily Weather History Graph

Search for Another Location

Airport or City:

Trip Planner

Search our weather history database for the weather conditions in past years. The results will help you decide how hot, cold, wet, or windy it might be!

Date:

Astronomy

Aug. 18, 2014 Rise Set
Actual Time 6:01 AM PDT 7:26 PM PDT
Civil Twilight 5:34 AM PDT 7:53 PM PDT
Nautical Twilight 5:01 AM PDT 8:26 PM PDT
Astronomical Twilight 4:27 AM PDT 8:59 PM PDT
Moon 12:13 AM PDT (8/18) 2:31 PM PDT (8/18)
Length of Visible Light 14h 19m
Length of Day
13h 25m
Last Quarter, 37% of the Moon is Illuminated
Aug 18
Last Quarter
Aug 25
New
Sep 2
First Quarter
Sep 8
Full
Sep 15
Last Quarter

Hourly Weather History & Observations

Time (PDT) Temp. Heat Index Dew Point Humidity Pressure Visibility Wind Dir Wind Speed Gust Speed Precip Events Conditions
12:56 AM 89.1 °F - 33.1 °F 14% 29.70 in 10.0 mi South 8.1 mph - N/A   Clear
1:56 AM 87.1 °F - 36.0 °F 16% 29.69 in 10.0 mi WSW 5.8 mph - N/A   Clear
2:56 AM 88.0 °F - 32.0 °F 14% 29.68 in 10.0 mi SSW 10.4 mph - N/A   Clear
3:56 AM 87.1 °F - 34.0 °F 15% 29.69 in 10.0 mi South 12.7 mph - N/A   Clear
4:56 AM 87.1 °F - 34.0 °F 15% 29.71 in 10.0 mi SSW 9.2 mph - N/A   Clear
5:56 AM 86.0 °F - 35.1 °F 16% 29.71 in 10.0 mi SSW 8.1 mph - N/A   Clear
6:56 AM 84.9 °F - 36.0 °F 17% 29.74 in 10.0 mi SSW 6.9 mph - N/A   Partly Cloudy
7:56 AM 88.0 °F - 51.1 °F 28% 29.76 in 10.0 mi South 12.7 mph - N/A   Partly Cloudy
8:56 AM 91.0 °F 88.9 °F 55.0 °F 29% 29.76 in 10.0 mi SSE 13.8 mph 18.4 mph N/A   Partly Cloudy
9:56 AM 95.0 °F - 46.9 °F 19% 29.77 in 10.0 mi South 18.4 mph 26.5 mph N/A   Partly Cloudy
10:56 AM 97.0 °F - 48.0 °F 19% 29.77 in 10.0 mi South 24.2 mph 32.2 mph N/A   Scattered Clouds
11:56 AM 98.1 °F - 50.0 °F 20% 29.75 in 10.0 mi South 23.0 mph 31.1 mph N/A   Scattered Clouds
12:56 PM 95.0 °F 93.7 °F 57.0 °F 28% 29.73 in 10.0 mi SSE 21.9 mph 29.9 mph N/A   Mostly Cloudy
1:56 PM 97.0 °F 94.6 °F 54.0 °F 23% 29.72 in 10.0 mi SSE 18.4 mph 31.1 mph N/A   Mostly Cloudy
2:56 PM 93.9 °F - 50.0 °F 22% 29.71 in 10.0 mi South 20.7 mph 29.9 mph N/A   Mostly Cloudy
3:56 PM 95.0 °F - 50.0 °F 22% 29.69 in 10.0 mi South 17.3 mph 24.2 mph N/A   Mostly Cloudy
4:56 PM 96.1 °F - 48.9 °F 20% 29.66 in 10.0 mi SSE 13.8 mph - N/A   Mostly Cloudy
5:56 PM 96.1 °F - 48.9 °F 20% 29.66 in 10.0 mi SSE 10.4 mph - N/A   Mostly Cloudy
6:56 PM 93.9 °F - 51.1 °F 23% 29.65 in 10.0 mi SE 6.9 mph - N/A   Mostly Cloudy
7:56 PM 93.0 °F 90.8 °F 54.0 °F 27% 29.67 in 10.0 mi South 13.8 mph - N/A   Mostly Cloudy
8:56 PM 91.4 °F 89.4 °F 55.4 °F 29% 29.77 in 10.0 mi South 16.1 mph - N/A   Mostly Cloudy
9:56 PM 91.0 °F 90.0 °F 57.9 °F 33% 29.68 in 10.0 mi South 12.7 mph - N/A   Overcast
10:56 PM 90.0 °F 88.6 °F 57.0 °F 33% 29.68 in 10.0 mi South 12.7 mph - N/A   Overcast
11:56 PM 89.1 °F 88.2 °F 59.0 °F 36% 29.68 in 10.0 mi South 15.0 mph 19.6 mph N/A   Overcast